EW9994 Weather Reports


time (UTC)temp
C
wind
direction
speed
KPH
gust
KPH
rain 1hr
cm
rain 24hr
cm
rain mn
cm
humidity
%
barometer
mb
20260902093906 26 246 6.4 9.7 0.00 0.00 0.00 65 1019.5
20260902093407 26 255 4.8 9.7 0.00 0.00 0.00 64 1019.6
20260902090906 25 202 4.8 8.0 0.00 0.00 0.00 67 1019.5
20260902090406 25 244 3.2 11.3 0.00 0.00 0.00 69 1019.5
20260902084406 24 248 1.6 4.8 0.00 0.00 0.00 71 1019.5
20260902083407 23 271 4.8 8.0 0.00 0.00 0.00 72 1019.5
20260902080906 23 249 4.8 8.0 0.00 0.00 0.00 74 1019.4
20260902073406 22 34 0.0 0.0 0.00 0.00 0.00 78 1019.2
20260902071906 21 34 0.0 0.0 0.00 0.00 0.00 79 1019.1
20260902070906 21 34 0.0 0.0 0.00 0.00 0.00 78 1019.1
20260902064906 21 34 0.0 0.0 0.00 0.00 0.00 80 1019.1
20260902064406 20 34 0.0 0.0 0.00 0.00 0.00 81 1019.1
20260902063906 20 34 0.0 0.0 0.00 0.00 0.00 81 1019.1
20260902063406 20 34 0.0 0.0 0.00 0.00 0.00 82 1019.2
20260902061906 18 34 0.0 0.0 0.00 0.00 0.00 83 1019.1
20260902060906 18 34 0.0 0.0 0.00 0.00 0.00 82 1019.1
20260902060406 18 34 0.0 0.0 0.00 0.00 0.00 81 1019.0
20260902053905 17 34 0.0 0.0 0.00 0.00 0.00 81 1018.9
20260902051906 18 34 0.0 0.0 0.00 0.00 0.00 82 1018.8
20260902051406 18 34 0.0 0.0 0.00 0.00 0.00 82 1018.8
20260902050906 18 34 0.0 1.6 0.00 0.00 0.00 82 1018.7
20260902050406 18 34 3.2 8.0 0.00 0.00 0.00 82 1018.7
20260902044406 18 34 0.0 0.0 0.00 0.00 0.00 83 1018.7
20260902043906 18 34 0.0 3.2 0.00 0.00 0.00 83 1018.7
20260902043406 18 34 1.6 8.0 0.00 0.00 0.00 83 1018.6
20260902041906 18 34 8.0 9.7 0.00 0.00 0.00 83 1018.5
20260902041406 18 20 3.2 4.8 0.00 0.00 0.00 83 1018.6
20260902040905 18 20 4.8 4.8 0.00 0.00 0.00 83 1018.6
20260902034405 18 20 3.2 8.0 0.00 0.00 0.00 82 1018.4
20260902031905 18 19 1.6 9.7 0.00 0.00 0.00 82 1018.5
20260902031405 18 19 0.0 4.8 0.00 0.00 0.00 82 1018.5
20260902030406 18 19 8.0 14.5 0.00 0.00 0.00 82 1018.5
20260902024405 18 32 3.2 4.8 0.00 0.00 0.00 82 1018.6
20260902023906 18 32 3.2 4.8 0.00 0.00 0.00 82 1018.6
20260902021905 18 32 6.4 11.3 0.00 0.00 0.00 82 1018.6
20260902013905 18 32 0.0 3.2 0.00 0.00 0.00 82 1018.5
20260902003905 19 47 3.2 4.8 0.00 0.00 0.00 81 1018.7
20260902003406 19 47 4.8 9.7 0.00 0.00 0.00 81 1018.7
20260902000407 19 49 3.2 8.0 0.00 0.00 0.00 81 1018.7
20260901231905 19 49 4.8 4.8 0.00 0.00 0.00 79 1018.9
20260901230905 20 49 3.2 4.8 0.00 0.00 0.00 77 1018.9
20260901230405 20 49 1.6 4.8 0.00 0.00 0.00 77 1019.0
20260901224405 20 49 0.0 4.8 0.00 0.00 0.00 71 1019.0
20260901223405 20 49 3.2 8.0 0.00 0.00 0.00 72 1018.9
20260901221906 20 47 1.6 4.8 0.00 0.00 0.00 69 1018.9
20260901221405 20 44 6.4 12.9 0.00 0.00 0.00 69 1018.8
20260901220906 20 39 3.2 9.7 0.00 0.00 0.00 69 1018.7
20260901214405 20 31 6.4 11.3 0.00 0.00 0.00 68 1018.7
20260901213905 20 27 4.8 9.7 0.00 0.00 0.00 68 1018.8
20260901213405 20 61 1.6 12.9 0.00 0.00 0.00 67 1018.7
20260901211405 20 30 9.7 14.5 0.00 0.00 0.00 67 1018.5
20260901210905 20 34 9.7 12.9 0.00 0.00 0.00 67 1018.5
20260901204905 20 37 4.8 8.0 0.00 0.00 0.00 66 1018.5
20260901200906 21 34 4.8 9.7 0.00 0.00 0.00 67 1018.6
20260901200407 21 34 3.2 12.9 0.00 0.00 0.00 68 1018.5
20260901194907 21 25 9.7 19.3 0.00 0.00 0.00 67 1018.4
20260901193907 21 29 14.5 19.3 0.00 0.00 0.00 67 1018.3
20260901191907 22 24 11.3 19.3 0.00 0.00 0.00 67 1018.2
20260901191407 22 42 9.7 19.3 0.00 0.00 0.00 67 1018.0
20260901190907 22 46 4.8 11.3 0.00 0.00 0.00 67 1017.9
20260901184907 22 40 9.7 16.1 0.00 0.00 0.00 67 1017.5
20260901184407 22 15 8.0 12.9 0.00 0.00 0.00 67 1017.3
20260901181907 23 19 9.7 19.3 0.00 0.00 0.00 69 1017.2
20260901181406 23 25 8.0 14.5 0.00 0.00 0.00 69 1017.3
20260901180907 23 34 8.0 14.5 0.00 0.00 0.00 69 1017.3
20260901180406 23 24 9.7 16.1 0.00 0.00 0.00 69 1017.4
20260901174906 24 26 9.7 14.5 0.00 0.00 0.00 67 1017.2
20260901173406 26 33 9.7 14.5 0.00 0.00 0.00 62 1017.2
20260901171907 28 212 3.2 4.8 0.00 0.00 0.00 51 1017.0
20260901171406 28 212 0.0 3.2 0.00 0.00 0.00 52 1016.9
20260901170412 28 212 3.2 12.9 0.00 0.00 0.00 54 1016.8
20260901164407 28 225 4.8 9.7 0.00 0.00 0.00 52 1016.9
20260901163907 28 216 8.0 12.9 0.00 0.00 0.00 51 1016.9
20260901163406 28 209 8.0 14.5 0.00 0.00 0.00 50 1016.8
20260901161907 29 205 8.0 16.1 0.00 0.00 0.00 52 1016.8
20260901160907 29 194 9.7 19.3 0.00 0.00 0.00 51 1016.8
20260901160409 30 199 8.0 16.1 0.00 0.00 0.00 51 1016.8
20260901154407 30 233 11.3 19.3 0.00 0.00 0.00 52 1016.9
20260901153907 30 241 9.7 19.3 0.00 0.00 0.00 53 1016.9
20260901153406 30 235 9.7 20.9 0.00 0.00 0.00 53 1016.9
20260901151407 30 218 11.3 16.1 0.00 0.00 0.00 57 1016.9
20260901143906 30 225 11.3 16.1 0.00 0.00 0.00 51 1016.9
20260901143406 30 178 8.0 19.3 0.00 0.00 0.00 52 1016.9
20260901141906 31 256 9.7 14.5 0.00 0.00 0.00 51 1016.8
20260901141406 30 238 11.3 20.9 0.00 0.00 0.00 50 1016.9
20260901140907 31 213 4.8 19.3 0.00 0.00 0.00 50 1016.9
20260901140407 31 247 4.8 16.1 0.00 0.00 0.00 49 1016.9
20260901134906 30 214 11.3 20.9 0.00 0.00 0.00 50 1017.0
20260901133906 30 277 9.7 14.5 0.00 0.00 0.00 52 1017.2
20260901131907 30 239 9.7 16.1 0.00 0.00 0.00 53 1017.3
20260901131407 30 197 6.4 11.3 0.00 0.00 0.00 56 1017.3
20260901124907 30 252 1.6 4.8 0.00 0.00 0.00 58 1017.3
20260901124406 30 126 4.8 8.0 0.00 0.00 0.00 57 1017.3
20260901123406 30 154 1.6 11.3 0.00 0.00 0.00 57 1017.4
20260901120407 30 192 8.0 12.9 0.00 0.00 0.00 59 1017.5
20260901113906 28 216 4.8 8.0 0.00 0.00 0.00 61 1017.7
20260901113407 28 212 3.2 11.3 0.00 0.00 0.00 62 1017.7
20260901111906 28 243 4.8 9.7 0.00 0.00 0.00 63 1017.8
20260901110906 28 224 1.6 3.2 0.00 0.00 0.00 63 1017.8
20260901104906 28 197 6.4 11.3 0.00 0.00 0.00 66 1017.9
20260901104406 28 230 4.8 9.7 0.00 0.00 0.00 67 1017.9
20260901103906 27 252 0.0 3.2 0.00 0.00 0.00 70 1017.9
20260901103406 27 252 3.2 8.0 0.00 0.00 0.00 72 1018.0
20260901101406 27 249 4.8 11.3 0.00 0.00 0.00 71 1018.0
20260901100906 27 228 6.4 14.5 0.00 0.00 0.00 71 1018.0
20260901094407 27 219 4.8 11.3 0.00 0.00 0.00 73 1018.1